Anoka County, MN

4:58 AM CDT on August 18, 2017 (GMT -0500)
Anoka County / Blaine Airport

Weather History for KANE - November, 2012

Change the Weather History Date:

Friday, November 2, 2012

  Actual Average Record
Temperature  
Mean Temperature 32 °F -  
Max Temperature 41 °F 46 °F 71 °F (2015)
Min Temperature 23 °F 31 °F 15 °F (1996)
Degree Days  
Heating Degree Days 33    
Moisture  
Dew Point 25 °F    
Average Humidity 78    
Maximum Humidity 100    
Minimum Humidity 53    
Precipitation  
Precipitation 0.00 in - - ()
Sea Level Pressure  
Sea Level Pressure 30.11 in    
Wind  
Wind Speed 3 mph (NNE)    
Max Wind Speed 8 mph    
Max Gust Speed -    
Visibility 10 miles    
Events      
Averages and records for this station are not official NWS values.
T = Trace of Precipitation, MM = Missing Value Source: NWS Daily Summary

Daily Weather History Graph

Daily Weather History Graph

Search for Another Location

Airport or City:

Trip Planner

Search our weather history database for the weather conditions in past years. The results will help you decide how hot, cold, wet, or windy it might be!

Date:

Astronomy

Nov. 02, 2012 Rise Set
Actual Time 7:53 AM CDT 5:58 PM CDT
Civil Twilight 7:22 AM CDT 6:29 PM CDT
Nautical Twilight 6:47 AM CDT 7:04 PM CDT
Astronomical Twilight 6:13 AM CDT 7:38 PM CDT
Moon 8:40 PM CDT (11/2) 11:20 AM CDT (11/2)
Length of Visible Light 11h 06m
Length of Day
10h 04m
Waning Gibbous, 87% of the Moon is Illuminated
Nov 2
Waning Gibbous
Nov 6
Last Quarter
Nov 13
New
Nov 20
First Quarter
Nov 28
Full

Hourly Weather History & Observations

Time (CDT) Temp. Windchill Dew Point Humidity Pressure Visibility Wind Dir Wind Speed Gust Speed Precip Events Conditions
12:14 AM 30.2 °F 22.6 °F 24.8 °F 80% 30.05 in 10.0 mi NNE 8.1 mph - N/A   Clear
12:33 AM 30.2 °F 25.4 °F 24.8 °F 80% 30.06 in 10.0 mi North 4.6 mph - N/A   Clear
12:54 AM 30.2 °F 24.3 °F 24.8 °F 80% 30.06 in 10.0 mi North 5.8 mph - N/A   Clear
1:14 AM 30.2 °F 24.3 °F 24.8 °F 80% 30.07 in 10.0 mi NNE 5.8 mph - N/A   Clear
1:33 AM 30.2 °F 23.4 °F 24.8 °F 80% 30.07 in 10.0 mi NNE 6.9 mph - N/A   Clear
1:54 AM 30.2 °F 23.4 °F 24.8 °F 80% 30.08 in 10.0 mi NNE 6.9 mph - N/A   Clear
2:14 AM 30.2 °F 26.7 °F 24.8 °F 80% 30.08 in 10.0 mi North 3.5 mph - N/A   Clear
2:34 AM 28.4 °F 24.6 °F 24.8 °F 86% 30.09 in 10.0 mi North 3.5 mph - N/A   Clear
2:54 AM 28.4 °F - 24.8 °F 86% 30.09 in 10.0 mi Calm Calm - N/A   Clear
3:14 AM 28.4 °F - 24.8 °F 86% 30.10 in 10.0 mi Calm Calm - N/A   Clear
3:34 AM 26.6 °F - 24.8 °F 93% 30.09 in 10.0 mi Calm Calm - N/A   Clear
3:54 AM 26.6 °F - 24.8 °F 93% 30.08 in 10.0 mi Calm Calm - N/A   Clear
4:14 AM 26.6 °F - 24.8 °F 93% 30.09 in 10.0 mi Calm Calm - N/A   Clear
4:34 AM 26.6 °F - 24.8 °F 93% 30.08 in 10.0 mi Calm Calm - N/A   Clear
4:54 AM 24.8 °F - 23.0 °F 93% 30.09 in 10.0 mi Calm Calm - N/A   Clear
5:14 AM 24.8 °F - 23.0 °F 93% 30.10 in 10.0 mi Calm Calm - N/A   Clear
5:34 AM 24.8 °F - 23.0 °F 93% 30.09 in 10.0 mi Calm Calm - N/A   Clear
5:54 AM 24.8 °F - 23.0 °F 93% 30.10 in 10.0 mi Calm Calm - N/A   Clear
6:13 AM 24.8 °F - 21.2 °F 86% 30.09 in 10.0 mi Calm Calm - N/A   Clear
6:34 AM 24.8 °F - 21.2 °F 86% 30.10 in 10.0 mi Calm Calm - N/A   Clear
6:45 AM 24.8 °F - 23.0 °F 93% 30.10 in 10.0 mi Calm Calm - N/A   Clear
6:54 AM 23.0 °F - 21.2 °F 93% 30.10 in 10.0 mi Calm Calm - N/A   Clear
7:50 AM 24.8 °F - 21.2 °F 86% 30.12 in 10.0 mi Calm Calm - N/A   Clear
8:50 AM 26.6 °F 21.2 °F 26.6 °F 100% 30.14 in 10.0 mi North 4.6 mph - N/A   Scattered Clouds
9:45 AM 32.0 °F 24.8 °F 28.4 °F 87% 30.14 in 10.0 mi NNE 8.1 mph - N/A   Scattered Clouds
10:50 AM 35.6 °F 30.7 °F 28.4 °F 75% 30.15 in 10.0 mi ENE 5.8 mph - N/A   Scattered Clouds
11:45 AM 35.6 °F 30.7 °F 28.4 °F 75% 30.15 in 10.0 mi East 5.8 mph - N/A   Mostly Cloudy
12:45 PM 37.4 °F - 26.6 °F 65% 30.15 in 10.0 mi Calm Calm - N/A   Overcast
1:45 PM 39.2 °F - 26.6 °F 61% 30.13 in 10.0 mi Calm Calm - N/A   Overcast
2:55 PM 39.2 °F - 26.6 °F 61% 30.12 in 10.0 mi Calm Calm - N/A   Overcast
3:45 PM 39.2 °F - 26.6 °F 61% 30.12 in 10.0 mi Calm Calm - N/A   Overcast
4:55 PM 41.0 °F 38.0 °F 24.8 °F 53% 30.11 in 10.0 mi North 4.6 mph - N/A   Overcast
5:45 PM 39.2 °F 35.0 °F 26.6 °F 61% 30.12 in 10.0 mi North 5.8 mph - N/A   Overcast
6:45 PM 39.2 °F 37.0 °F 26.6 °F 61% 30.14 in 10.0 mi NNW 3.5 mph - N/A   Overcast
7:45 PM 37.4 °F 34.9 °F 26.6 °F 65% 30.13 in 10.0 mi North 3.5 mph - N/A   Overcast
8:45 PM 37.4 °F - 26.6 °F 65% 30.14 in 10.0 mi Calm Calm - N/A   Overcast
9:14 PM 37.4 °F - 26.6 °F 65% 30.14 in 10.0 mi Calm Calm - N/A   Overcast
9:34 PM 37.4 °F - 26.6 °F 65% 30.14 in 10.0 mi Calm Calm - N/A   Overcast
9:54 PM 37.4 °F - 26.6 °F 65% 30.15 in 10.0 mi Calm Calm - N/A   Overcast
10:14 PM 37.4 °F 34.9 °F 28.4 °F 70% 30.15 in 10.0 mi WNW 3.5 mph - N/A   Overcast
10:34 PM 37.4 °F - 26.6 °F 65% 30.15 in 10.0 mi Calm Calm - N/A   Overcast
10:54 PM 37.4 °F - 26.6 °F 65% 30.16 in 10.0 mi Calm Calm - N/A   Overcast
11:14 PM 37.4 °F - 26.6 °F 65% 30.16 in 10.0 mi Calm Calm - N/A   Overcast
11:34 PM 37.4 °F - 26.6 °F 65% 30.16 in 10.0 mi Calm Calm - N/A   Overcast
11:54 PM 37.4 °F - 28.4 °F 70% 30.16 in 10.0 mi Calm Calm - N/A   Overcast